| time (UTC) | temp F | wind direction | speed knots | gust knots | rain 1hr in | rain 24hr in | rain mn in | humidity % | barometer mb |
| 20260905164704 | 94 | 355 | 0.9 | 2.6 | 0.00 | 0.00 | 0.00 | 25 | 1011.0 |
| 20260905164205 | 94 | 355 | 0.9 | 2.6 | 0.00 | 0.00 | 0.00 | 24 | 1010.6 |
| 20260905163204 | 95 | 355 | 1.7 | 4.3 | 0.00 | 0.00 | 0.00 | 24 | 1010.6 |
| 20260905160705 | 96 | 29 | 0.9 | 2.6 | 0.00 | 0.00 | 0.00 | 24 | 1010.6 |
| 20260905160204 | 96 | 29 | 0.9 | 2.6 | 0.00 | 0.00 | 0.00 | 24 | 1010.6 |
| 20260905154704 | 96 | 39 | 0.9 | 2.6 | 0.00 | 0.00 | 0.00 | 23 | 1010.6 |
| 20260905153704 | 96 | 39 | 1.7 | 2.6 | 0.00 | 0.00 | 0.00 | 24 | 1010.6 |
| 20260905153205 | 96 | 39 | 0.9 | 2.6 | 0.00 | 0.00 | 0.00 | 24 | 1010.6 |
| 20260905151205 | 95 | 42 | 1.7 | 4.3 | 0.00 | 0.00 | 0.00 | 24 | 1010.8 |
| 20260905150704 | 95 | 40 | 2.6 | 4.3 | 0.00 | 0.00 | 0.00 | 24 | 1010.8 |
| 20260905144204 | 95 | 0 | 1.7 | 2.6 | 0.00 | 0.00 | 0.00 | 24 | 1011.1 |
| 20260905143204 | 96 | 48 | 1.7 | 4.3 | 0.00 | 0.00 | 0.00 | 24 | 1011.1 |
| 20260905141704 | 96 | 31 | 1.7 | 6.1 | 0.00 | 0.00 | 0.00 | 25 | 1011.3 |
| 20260905141205 | 96 | 15 | 1.7 | 2.6 | 0.00 | 0.00 | 0.00 | 24 | 1011.3 |
| 20260905140704 | 95 | 14 | 0.9 | 1.7 | 0.00 | 0.00 | 0.00 | 24 | 1011.3 |
| 20260905134704 | 94 | 11 | 0.9 | 2.6 | 0.00 | 0.00 | 0.00 | 25 | 1011.3 |
| 20260905133705 | 94 | 22 | 0.9 | 4.3 | 0.00 | 0.00 | 0.00 | 25 | 1011.6 |
| 20260905131705 | 93 | 3 | 1.7 | 4.3 | 0.00 | 0.00 | 0.00 | 25 | 1011.6 |
| 20260905131204 | 93 | 6 | 0.9 | 2.6 | 0.00 | 0.00 | 0.00 | 25 | 1011.6 |
| 20260905130704 | 93 | 30 | 1.7 | 5.2 | 0.00 | 0.00 | 0.00 | 25 | 1011.6 |
| 20260905124204 | 93 | 14 | 1.7 | 7.8 | 0.00 | 0.00 | 0.00 | 26 | 1012.1 |
| 20260905121204 | 92 | 49 | 0.9 | 5.2 | 0.00 | 0.00 | 0.00 | 25 | 1012.2 |
| 20260905120704 | 92 | 341 | 2.6 | 7.0 | 0.00 | 0.00 | 0.00 | 25 | 1012.2 |
| 20260905114704 | 92 | 23 | 1.7 | 4.3 | 0.00 | 0.00 | 0.00 | 26 | 1012.2 |
| 20260905114204 | 92 | 13 | 1.7 | 6.1 | 0.00 | 0.00 | 0.00 | 25 | 1012.2 |
| 20260905113704 | 92 | 23 | 1.7 | 2.6 | 0.00 | 0.00 | 0.00 | 25 | 1012.2 |
| 20260905113204 | 91 | 30 | 1.7 | 8.7 | 0.00 | 0.00 | 0.00 | 25 | 1012.2 |
| 20260905111204 | 90 | 30 | 1.7 | 4.3 | 0.00 | 0.00 | 0.00 | 25 | 1012.7 |
| 20260905110704 | 90 | 24 | 1.7 | 2.6 | 0.00 | 0.00 | 0.00 | 26 | 1012.7 |
| 20260905110205 | 90 | 19 | 1.7 | 4.3 | 0.00 | 0.00 | 0.00 | 25 | 1012.7 |
| 20260905104704 | 90 | 43 | 1.7 | 4.3 | 0.00 | 0.00 | 0.00 | 26 | 1012.7 |
| 20260905104204 | 90 | 45 | 1.7 | 4.3 | 0.00 | 0.00 | 0.00 | 26 | 1012.7 |
| 20260905103704 | 90 | 33 | 0.9 | 4.3 | 0.00 | 0.00 | 0.00 | 26 | 1012.7 |
| 20260905101204 | 89 | 17 | 1.7 | 2.6 | 0.00 | 0.00 | 0.00 | 25 | 1012.7 |
| 20260905100204 | 89 | 35 | 0.9 | 4.3 | 0.00 | 0.00 | 0.00 | 25 | 1012.7 |
| 20260905094204 | 88 | 32 | 1.7 | 4.3 | 0.00 | 0.00 | 0.00 | 28 | 1012.7 |
| 20260905093704 | 87 | 32 | 1.7 | 2.6 | 0.00 | 0.00 | 0.00 | 27 | 1012.7 |
| 20260905090204 | 85 | 24 | 0.9 | 2.6 | 0.00 | 0.00 | 0.00 | 30 | 1012.7 |
| 20260905084204 | 84 | 6 | 1.7 | 2.6 | 0.00 | 0.00 | 0.00 | 30 | 1012.6 |
| 20260905083705 | 84 | 17 | 0.9 | 2.6 | 0.00 | 0.00 | 0.00 | 32 | 1012.6 |
| 20260905083204 | 83 | 16 | 0.9 | 6.1 | 0.00 | 0.00 | 0.00 | 32 | 1012.6 |
| 20260905074204 | 82 | 331 | 1.7 | 2.6 | 0.00 | 0.00 | 0.00 | 34 | 1012.3 |
| 20260905071704 | 82 | 1 | 1.7 | 2.6 | 0.00 | 0.00 | 0.00 | 32 | 1012.1 |
| 20260905070204 | 80 | 340 | 0.0 | 1.7 | 0.00 | 0.00 | 0.00 | 38 | 1012.1 |
| 20260905064704 | 78 | 340 | 0.0 | 0.0 | 0.00 | 0.00 | 0.00 | 43 | 1012.1 |
| 20260905064204 | 77 | 340 | 0.0 | 0.0 | 0.00 | 0.00 | 0.00 | 43 | 1012.1 |
| 20260905060704 | 72 | 355 | 0.0 | 1.7 | 0.00 | 0.00 | 0.00 | 49 | 1011.5 |
| 20260905054703 | 70 | 355 | 0.0 | 2.6 | 0.00 | 0.00 | 0.00 | 51 | 1011.5 |
| 20260905053704 | 70 | 355 | 0.9 | 1.7 | 0.00 | 0.00 | 0.00 | 50 | 1011.5 |
| 20260905053204 | 69 | 355 | 0.9 | 2.6 | 0.00 | 0.00 | 0.00 | 50 | 1011.6 |
| 20260905051204 | 69 | 355 | 0.0 | 1.7 | 0.00 | 0.00 | 0.00 | 54 | 1011.2 |
| 20260905050704 | 69 | 355 | 0.0 | 1.7 | 0.00 | 0.00 | 0.00 | 53 | 1011.2 |
| 20260905043204 | 69 | 355 | 0.9 | 1.7 | 0.00 | 0.00 | 0.00 | 51 | 1011.1 |
| 20260905040204 | 69 | 355 | 0.0 | 1.7 | 0.00 | 0.00 | 0.00 | 53 | 1011.1 |
| 20260905034704 | 69 | 355 | 0.0 | 1.7 | 0.00 | 0.00 | 0.00 | 54 | 1011.1 |
| 20260905034203 | 69 | 355 | 0.0 | 1.7 | 0.00 | 0.00 | 0.00 | 54 | 1011.1 |
| 20260905033704 | 70 | 355 | 0.0 | 0.9 | 0.00 | 0.00 | 0.00 | 53 | 1011.1 |
| 20260905033204 | 70 | 355 | 0.0 | 0.9 | 0.00 | 0.00 | 0.00 | 52 | 1011.1 |
| 20260905031704 | 71 | 355 | 0.9 | 2.6 | 0.00 | 0.00 | 0.00 | 51 | 1011.1 |
| 20260905030704 | 71 | 355 | 0.9 | 2.6 | 0.00 | 0.00 | 0.00 | 50 | 1011.1 |
| 20260905030203 | 71 | 355 | 0.9 | 2.6 | 0.00 | 0.00 | 0.00 | 49 | 1011.1 |
| 20260905024704 | 72 | 355 | 1.7 | 2.6 | 0.00 | 0.00 | 0.00 | 48 | 1011.1 |
| 20260905014704 | 70 | 355 | 0.9 | 2.6 | 0.00 | 0.00 | 0.00 | 51 | 1011.4 |
| 20260905013204 | 71 | 355 | 0.9 | 2.6 | 0.00 | 0.00 | 0.00 | 52 | 1011.6 |
| 20260905011704 | 71 | 355 | 0.9 | 1.7 | 0.00 | 0.00 | 0.00 | 53 | 1011.6 |
| 20260905004704 | 72 | 355 | 0.9 | 2.6 | 0.00 | 0.00 | 0.00 | 50 | 1011.6 |
| 20260905004204 | 72 | 355 | 1.7 | 2.6 | 0.00 | 0.00 | 0.00 | 51 | 1011.6 |
| 20260905003704 | 72 | 355 | 0.9 | 2.6 | 0.00 | 0.00 | 0.00 | 51 | 1011.6 |
| 20260905003204 | 72 | 355 | 0.9 | 2.6 | 0.00 | 0.00 | 0.00 | 50 | 1011.6 |
| 20260905000704 | 75 | 355 | 0.0 | 1.7 | 0.00 | 0.00 | 0.00 | 48 | 1011.6 |
| 20260904234704 | 76 | 355 | 0.0 | 0.9 | 0.00 | 0.00 | 0.00 | 44 | 1011.7 |
| 20260904231705 | 77 | 5 | 0.9 | 2.6 | 0.00 | 0.00 | 0.00 | 40 | 1011.7 |
| 20260904231203 | 77 | 5 | 0.9 | 4.3 | 0.00 | 0.00 | 0.00 | 41 | 1011.7 |
| 20260904224704 | 77 | 5 | 0.0 | 0.9 | 0.00 | 0.00 | 0.00 | 40 | 1011.9 |
| 20260904223204 | 77 | 5 | 1.7 | 4.3 | 0.00 | 0.00 | 0.00 | 42 | 1012.0 |
| 20260904221703 | 78 | 5 | 0.9 | 1.7 | 0.00 | 0.00 | 0.00 | 46 | 1012.3 |
| 20260904221204 | 78 | 5 | 0.0 | 0.9 | 0.00 | 0.00 | 0.00 | 45 | 1012.3 |
| 20260904220705 | 79 | 5 | 0.0 | 0.0 | 0.00 | 0.00 | 0.00 | 45 | 1012.3 |
| 20260904220204 | 79 | 5 | 0.0 | 2.6 | 0.00 | 0.00 | 0.00 | 43 | 1012.3 |
| 20260904213704 | 80 | 5 | 0.0 | 0.9 | 0.00 | 0.00 | 0.00 | 38 | 1012.3 |
| 20260904211704 | 79 | 5 | 0.0 | 1.7 | 0.00 | 0.00 | 0.00 | 35 | 1012.3 |
| 20260904204204 | 80 | 5 | 0.9 | 2.6 | 0.00 | 0.00 | 0.00 | 35 | 1012.4 |
| 20260904203704 | 81 | 5 | 1.7 | 2.6 | 0.00 | 0.00 | 0.00 | 33 | 1012.4 |
| 20260904203204 | 81 | 5 | 0.9 | 1.7 | 0.00 | 0.00 | 0.00 | 32 | 1012.4 |
| 20260904201704 | 83 | 5 | 0.9 | 1.7 | 0.00 | 0.00 | 0.00 | 28 | 1012.4 |
| 20260904200703 | 84 | 5 | 1.7 | 2.6 | 0.00 | 0.00 | 0.00 | 27 | 1012.4 |
| 20260904200204 | 84 | 5 | 1.7 | 2.6 | 0.00 | 0.00 | 0.00 | 26 | 1012.4 |
| 20260904194204 | 84 | 5 | 1.7 | 2.6 | 0.00 | 0.00 | 0.00 | 27 | 1012.3 |
| 20260904193704 | 84 | 9 | 0.9 | 2.6 | 0.00 | 0.00 | 0.00 | 29 | 1012.3 |
| 20260904193203 | 84 | 9 | 0.9 | 2.6 | 0.00 | 0.00 | 0.00 | 32 | 1012.3 |
| 20260904191703 | 84 | 9 | 0.9 | 2.6 | 0.00 | 0.00 | 0.00 | 35 | 1012.3 |
| 20260904191203 | 84 | 9 | 0.9 | 1.7 | 0.00 | 0.00 | 0.00 | 34 | 1012.0 |
| 20260904190703 | 84 | 9 | 0.9 | 1.7 | 0.00 | 0.00 | 0.00 | 35 | 1012.0 |
| 20260904184704 | 85 | 9 | 0.9 | 1.7 | 0.00 | 0.00 | 0.00 | 39 | 1012.0 |
| 20260904183703 | 86 | 9 | 0.0 | 1.7 | 0.00 | 0.00 | 0.00 | 39 | 1012.0 |
| 20260904181203 | 88 | 9 | 0.9 | 2.6 | 0.00 | 0.00 | 0.00 | 35 | 1011.6 |
| 20260904174705 | 90 | 9 | 0.9 | 1.7 | 0.00 | 0.00 | 0.00 | 32 | 1011.6 |
| 20260904174205 | 91 | 9 | 0.9 | 1.7 | 0.00 | 0.00 | 0.00 | 31 | 1011.6 |
| 20260904171705 | 93 | 9 | 0.0 | 1.7 | 0.00 | 0.00 | 0.00 | 29 | 1011.6 |
| 20260904170705 | 93 | 9 | 1.7 | 2.6 | 0.00 | 0.00 | 0.00 | 29 | 1011.6 |